Cloud_Cover
100 100 97 100 94 100 100 93 100 73 60 76 3 0 0 0 6 3 11 100 100 67 86 100 100 100 100 99 100 98 100 22 10 100 14 93 100 100 98 100 8 6 22
15 100 81 99 97 100 100 100 100 100 100 78 0 0 0 0 10 0 0 37 99 100 100 100 100 100 100 100 100 100 18 97 25 23 24 52 100 100 79 92 5 3 20
68 100 100 100 23 88 100 100 100 100 100 100 0 0 0 0 13 25 0 5 91 100 100 100 100 100 95 100 96 100 33 100 10 5 30 69 100 100 100 21 5 7 97
100 99 100 100 100 37 100 100 100 100 100 35 22 91 10 0 3 98 16 5 70 96 100 100 100 100 100 100 98 95 99 89 41 6 23 25 72 100 89 97 8 87 100
100 100 100 100 100 90 99 100 100 100 100 81 94 100 99 2 0 43 100 80 84 98 100 100 63 50 100 100 100 100 99 61 13 27 8 16 75 93 74 98 49 100 100
100 98 98 100 100 100 53 100 100 100 100 100 74 74 99 85 100 26 100 100 96 100 100 100 75 99 40 100 100 56 100 44 9 5 47 90 100 100 69 5 90 97 98
100 100 100 100 57 85 85 100 100 100 100 100 100 100 100 6 100 100 100 74 99 100 100 100 100 100 72 100 83 85 100 96 7 84 100 21 100 100 52 27 53 38 100
95 100 100 100 82 86 85 100 100 100 100 100 100 100 78 32 100 100 100 56 89 100 100 100 100 100 100 100 100 100 99 58 5 42 100 85 82 100 30 4 5 15 100
42 100 91 88 100 100 100 100 100 100 100 100 100 99 100 97 100 100 100 100 46 100 100 100 100 100 100 100 83 100 100 16 4 5 77 85 87 100 14 4 0 0 35
46 73 99 94 90 100 100 100 100 100 100 100 100 96 100 100 100 100 100 100 100 95 100 100 100 95 90 100 87 94 100 90 34 34 1 94 98 100 8 18 3 0 4
25 18 67 100 100 100 100 100 100 100 100 100 93 100 100 100 98 78 94 95 100 100 100 100 84 88 98 100 94 97 99 87 25 88 64 33 51 84 71 5 21 0 0
28 96 75 84 100 100 100 100 100 100 100 100 100 100 100 100 99 100 100 81 98 100 100 100 92 89 100 100 79 100 100 88 93 34 97 100 19 39 87 91 68 9 18
100 100 100 58 29 100 100 100 100 100 100 100 100 100 100 100 93 100 97 88 100 100 100 100 100 97 100 100 100 46 99 95 98 34 17 58 12 50 28 72 99 89 81
85 100 100 100 92 86 100 100 100 100 100 100 100 100 100 100 100 100 100 100 100 98 100 100 100 100 97 85 100 54 100 100 100 46 11 16 73 13 23 47 61 100 99
100 100 100 100 100 100 100 100 100 100 100 100 100 100 100 100 100 100 100 100 87 91 100 100 100 100 100 100 79 44 98 81 95 99 18 31 34 14 26 24 71 89 100
100 100 100 100 95 100 93 100 100 100 100 100 100 92 92 93 100 100 100 100 100 100 100 98 100 100 100 76 99 100 93 74 97 81 70 23 31 20 36 27 6 52 96
57 100 100 100 100 98 100 100 100 100 100 100 100 100 100 100 100 100 100 100 100 100 100 100 79 85 100 100 100 100 100 72 100 100 100 78 25 19 29 37 29 88 100
28 99 100 97 100 100 100 100 64 52 96 98 100 99 100 100 100 100 100 100 100 100 100 100 100 100 44 100 100 100 100 98 100 100 100 74 64 7 38 37 33 23 100
100 95 100 100 100 100 100 100 100 100 100 100 90 86 100 100 100 100 100 100 100 100 100 100 100 100 100 100 100 100 100 98 100 100 98 98 85 40 40 26 33 28 22
100 100 100 100 100 100 100 100 100 100 100 100 100 100 100 100 95 91 70 100 100 100 100 100 100 100 100 100 100 100 100 100 100 100 100 100 93 95 22 31 36 46 47
100 100 100 100 100 100 100 100 100 100 100 100 100 100 100 100 100 100 100 100 100 99 99 100 100 100 100 100 100 100 100 100 100 100 100 100 100 89 84 70 24 5 7
100 100 100 100 100 100 100 100 100 100 100 100 100 100 100 100 100 100 100 100 100 100 100 100 100 100 92 91 100 100 100 100 100 100 93 100 98 100 79 100 83 100 73
99 100 100 100 100 100 100 100 100 100 100 100 100 100 100 100 100 100 100 100 100 100 100 100 100 100 100 100 100 100 100 100 100 100 100 100 100 98 99 95 96 100 100
48 100 100 100 100 100 100 100 100 100 100 100 100 100 100 100 100 100 100 100 100 100 100 100 100 100 100 100 100 100 100 100 100 100 100 100 100 100 100 98 100 100 100
45 100 100 100 100 100 100 100 100 100 100 100 100 100 100 100 100 100 100 100 100 100 100 100 100 100 100 100 100 100 100 100 100 100 100 100 100 100 100 100 100 100 100
89 100 100 100 100 100 100 100 100 100 100 100 100 100 100 100 100 100 100 100 100 100 100 100 100 100 100 100 100 100 100 100 100 100 100 100 100 100 100 100 100 100 100